CW0133 Weather Reports


Display with metric or nautical units.
time (UTC)temp
F
wind
direction
speed
MPH
gust
MPH
rain 1hr
in
rain 24hr
in
rain mn
in
humidity
%
barometer
mb
20260508075004 64 321 0.0 1.0 0.00 0.00 0.00 77 1016.1
20260508074504 64 321 0.0 2.0 0.00 0.00 0.00 77 1015.9
20260508074004 63 321 1.0 5.0 0.00 0.00 0.00 77 1016.1
20260508073525 64 321 2.0 5.0 0.00 0.00 0.00 77 1016.0
20260508073004 63 321 2.0 5.0 0.00 0.00 0.00 77 1016.0
20260508072525 63 321 2.0 5.0 0.00 0.00 0.00 77 1016.1
20260508072004 63 321 2.0 5.0 0.00 0.00 0.00 77 1016.1
20260508071504 63 321 2.0 5.0 0.00 0.00 0.00 77 1015.8
20260508071003 63 321 2.0 5.0 0.00 0.00 0.00 77 1015.8
20260508070525 63 321 4.0 5.0 0.00 0.00 0.00 77 1016.0
20260508070004 63 321 2.0 5.0 0.00 0.00 0.00 77 1016.0
20260508065504 63 321 2.0 5.0 0.00 0.00 0.00 77 1015.9
20260508065004 63 321 2.0 6.0 0.00 0.00 0.00 77 1016.1
20260508064504 63 321 2.0 6.0 0.00 0.00 0.00 78 1016.3
20260508064003 63 320 2.0 6.0 0.00 0.00 0.00 77 1016.5
20260508063504 63 319 2.0 6.0 0.00 0.00 0.00 78 1016.6
20260508063025 63 319 2.0 5.0 0.00 0.00 0.00 78 1016.7
20260508062504 63 319 2.0 5.0 0.00 0.00 0.00 78 1016.6
20260508062004 63 319 1.0 4.0 0.00 0.00 0.00 78 1016.9
20260508061503 63 319 1.0 4.0 0.00 0.00 0.00 78 1016.8
20260508061004 63 319 1.0 4.0 0.00 0.00 0.00 78 1016.8
20260508060504 63 319 1.0 4.0 0.00 0.00 0.00 78 1017.0
20260508060004 63 319 2.0 5.0 0.00 0.00 0.00 78 1016.9
20260508055525 63 319 2.0 6.0 0.00 0.00 0.00 78 1016.5
20260508055003 63 319 2.0 6.0 0.00 0.00 0.00 78 1016.5
20260508054504 63 319 2.0 4.0 0.00 0.00 0.00 78 1016.6
20260508054004 63 319 2.0 5.0 0.00 0.00 0.00 78 1016.8
20260508053503 63 319 2.0 5.0 0.00 0.00 0.00 78 1017.2
20260508053004 63 318 1.0 4.0 0.00 0.00 0.00 78 1016.9
20260508052503 63 318 1.0 5.0 0.00 0.00 0.00 78 1016.9
20260508052004 63 316 2.0 7.0 0.00 0.00 0.00 78 1016.6
20260508051504 63 313 2.0 7.0 0.00 0.00 0.00 77 1016.7
20260508051004 63 311 2.0 6.0 0.00 0.00 0.00 77 1016.7
20260508050504 63 311 2.0 6.0 0.00 0.00 0.00 77 1016.5
20260508050004 63 309 4.0 8.0 0.00 0.00 0.00 77 1016.5
20260508045504 63 301 4.0 8.0 0.00 0.00 0.00 77 1017.0
20260508045003 63 315 4.0 8.0 0.00 0.00 0.00 77 1017.0
20260508044503 63 24 2.0 8.0 0.00 0.00 0.00 77 1017.2
20260508044004 63 62 2.0 5.0 0.00 0.00 0.00 77 1016.8
20260508043504 63 62 2.0 5.0 0.00 0.00 0.00 76 1016.0
20260508043004 63 62 2.0 5.0 0.00 0.00 0.00 76 1016.3
20260508042504 63 62 2.0 5.0 0.00 0.00 0.00 76 1016.4
20260508042004 63 62 1.0 4.0 0.00 0.00 0.00 76 1016.6
20260508041525 64 62 1.0 5.0 0.00 0.00 0.00 75 1016.7
20260508041004 64 62 2.0 5.0 0.00 0.00 0.00 75 1016.6
20260508040504 64 62 2.0 5.0 0.00 0.00 0.00 75 1017.0
20260508040004 64 62 2.0 5.0 0.00 0.00 0.00 75 1017.1
20260508035504 64 62 1.0 4.0 0.00 0.00 0.00 76 1017.2
20260508035004 64 62 1.0 4.0 0.00 0.00 0.00 76 1017.1
20260508034524 64 62 2.0 4.0 0.00 0.00 0.00 75 1017.3
20260508034004 64 62 1.0 4.0 0.00 0.00 0.00 75 1017.2
20260508033504 64 62 0.0 2.0 0.00 0.00 0.00 75 1017.7
20260508033024 64 62 1.0 4.0 0.00 0.00 0.00 75 1017.8
20260508032503 64 62 1.0 4.0 0.00 0.00 0.00 75 1017.6
20260508032024 64 62 1.0 4.0 0.00 0.00 0.00 75 1017.8
20260508031504 64 62 2.0 4.0 0.00 0.00 0.00 74 1017.7
20260508031025 64 62 2.0 4.0 0.00 0.00 0.00 74 1017.7
20260508030524 64 62 2.0 4.0 0.00 0.00 0.00 74 1017.7
20260508030004 64 62 1.0 4.0 0.00 0.00 0.00 73 1017.4
20260508025504 64 62 2.0 8.0 0.00 0.00 0.00 73 1017.1
20260508025004 65 62 4.0 8.0 0.00 0.00 0.00 72 1016.9
20260508024503 65 63 2.0 6.0 0.00 0.00 0.00 72 1016.9
20260508024025 65 64 1.0 6.0 0.00 0.00 0.00 72 1016.8
20260508023503 65 65 2.0 6.0 0.00 0.00 0.00 72 1016.6
20260508023004 65 66 2.0 6.0 0.00 0.00 0.00 71 1016.3
20260508022503 65 69 2.0 6.0 0.00 0.00 0.00 71 1015.8
20260508022024 65 57 2.0 12.0 0.00 0.00 0.00 70 1015.7
20260508021504 65 38 2.0 12.0 0.00 0.00 0.00 70 1015.7
20260508021003 65 46 4.0 11.0 0.00 0.00 0.00 69 1015.5
20260508020525 65 55 4.0 11.0 0.00 0.00 0.00 69 1015.5
20260508020003 65 60 2.0 8.0 0.00 0.00 0.00 69 1015.3
20260508015504 65 76 4.0 11.0 0.00 0.00 0.00 68 1015.3
20260508015004 66 83 4.0 11.0 0.00 0.00 0.00 68 1015.2
20260508014503 66 73 4.0 10.0 0.00 0.00 0.00 67 1015.1
20260508014003 66 59 5.0 11.0 0.00 0.00 0.00 67 1015.2
20260508013504 66 45 5.0 11.0 0.00 0.00 0.00 66 1015.6
20260508013003 66 38 5.0 10.0 0.00 0.00 0.00 66 1015.6
20260508012503 66 39 4.0 10.0 0.00 0.00 0.00 65 1015.7
20260508012024 67 33 4.0 7.0 0.00 0.00 0.00 65 1015.6
20260508011503 67 18 5.0 10.0 0.00 0.00 0.00 65 1015.9
20260508011003 67 6 5.0 11.0 0.00 0.00 0.00 65 1016.3
20260508010503 67 28 5.0 11.0 0.00 0.00 0.00 65 1016.4
20260508010004 67 39 5.0 12.0 0.00 0.00 0.00 64 1015.1
20260508005504 68 39 5.0 12.0 0.00 0.00 0.00 64 1015.0
20260508005003 68 52 6.0 12.0 0.00 0.00 0.00 64 1015.1
20260508004524 68 49 6.0 11.0 0.00 0.00 0.00 63 1015.4
20260508004003 68 34 5.0 11.0 0.00 0.00 0.00 64 1015.6
20260508003503 69 33 4.0 10.0 0.00 0.00 0.00 64 1015.9
20260508003005 69 48 4.0 8.0 0.00 0.00 0.00 63 1016.2
20260508002503 69 40 2.0 8.0 0.00 0.00 0.00 62 1016.1
20260508002003 69 12 2.0 6.0 0.00 0.00 0.00 62 1016.1
20260508001503 70 11 2.0 6.0 0.00 0.00 0.00 63 1016.3
20260508001004 70 9 4.0 6.0 0.00 0.00 0.00 63 1016.5
20260508000503 70 5 4.0 6.0 0.00 0.00 0.00 62 1016.6
20260508000024 70 5 4.0 6.0 0.00 0.00 0.00 62 1016.5
20260507235503 70 30 4.0 7.0 0.00 0.00 0.00 61 1017.0
20260507235003 70 92 2.0 7.0 0.00 0.00 0.00 61 1016.8
20260507234503 70 73 2.0 8.0 0.00 0.00 0.00 60 1016.9
20260507234003 70 21 4.0 8.0 0.00 0.00 0.00 62 1016.8
20260507233524 70 5 5.0 8.0 0.00 0.00 0.00 60 1017.0
20260507233024 70 2 6.0 10.0 0.00 0.00 0.00 61 1017.1
20260507232503 70 29 5.0 10.0 0.00 0.00 0.00 60 1017.1
20260507232003 70 66 4.0 10.0 0.00 0.00 0.00 61 1016.8
20260507231503 70 64 4.0 10.0 0.00 0.00 0.00 60 1016.8
20260507231024 70 33 2.0 8.0 0.00 0.00 0.00 61 1016.7
20260507230524 70 13 4.0 8.0 0.00 0.00 0.00 62 1016.8
20260507230024 70 14 5.0 10.0 0.00 0.00 0.00 61 1017.1
20260507225503 70 17 5.0 11.0 0.00 0.00 0.00 61 1017.0
20260507225003 70 12 5.0 11.0 0.00 0.00 0.00 63 1017.2
20260507224504 69 8 5.0 10.0 0.00 0.00 0.00 64 1017.1
20260507224004 69 4 4.0 7.0 0.00 0.00 0.00 64 1017.4
20260507223503 69 20 4.0 10.0 0.00 0.00 0.00 64 1017.3
20260507223003 69 42 4.0 10.0 0.00 0.00 0.00 64 1017.3
20260507222503 69 16 4.0 8.0 0.00 0.00 0.00 62 1017.4
20260507222003 69 10 5.0 10.0 0.00 0.00 0.00 63 1017.6
20260507221524 69 15 4.0 11.0 0.00 0.00 0.00 63 1017.5
20260507221003 69 360 5.0 11.0 0.00 0.00 0.00 63 1017.6
20260507220524 69 349 6.0 11.0 0.00 0.00 0.00 63 1017.7
20260507220003 69 354 5.0 11.0 0.00 0.00 0.00 63 1017.5
20260507215524 68 356 5.0 8.0 0.00 0.00 0.00 64 1017.6
20260507215003 68 5 5.0 10.0 0.00 0.00 0.00 64 1017.5
20260507214503 68 16 5.0 10.0 0.00 0.00 0.00 63 1017.5
20260507214003 68 20 5.0 11.0 0.00 0.00 0.00 64 1017.5
20260507213503 68 8 6.0 12.0 0.00 0.00 0.00 63 1017.6
20260507213003 68 2 7.0 12.0 0.00 0.00 0.00 64 1017.5
20260507212503 68 12 6.0 12.0 0.00 0.00 0.00 63 1017.5
20260507212003 68 11 5.0 11.0 0.00 0.00 0.00 63 1017.4
20260507211503 68 19 6.0 12.0 0.00 0.00 0.00 63 1017.4
20260507211003 68 11 7.0 13.0 0.00 0.00 0.00 63 1017.7
20260507210503 68 4 8.0 17.0 0.00 0.00 0.00 63 1017.7
20260507210003 68 13 8.0 17.0 0.00 0.00 0.00 64 1017.7
20260507205503 68 8 8.0 17.0 0.00 0.00 0.00 63 1017.4
20260507205003 68 356 11.0 19.0 0.00 0.00 0.00 63 1017.3
20260507204503 69 350 10.0 19.0 0.00 0.00 0.00 63 1017.1
20260507204003 69 352 10.0 19.0 0.00 0.00 0.00 64 1017.3
20260507203503 69 350 8.0 18.0 0.00 0.00 0.00 65 1017.3
20260507203004 69 346 8.0 17.0 0.00 0.00 0.00 65 1017.4
20260507202504 69 356 8.0 17.0 0.00 0.00 0.00 64 1017.9
20260507202004 69 10 7.0 17.0 0.00 0.00 0.00 64 1017.9
20260507201504 69 11 8.0 24.0 0.00 0.00 0.00 64 1018.0
20260507201004 69 360 8.0 24.0 0.00 0.00 0.00 62 1018.1
20260507200504 69 358 7.0 18.0 0.00 0.00 0.00 65 1018.2
20260507200025 69 3 8.0 18.0 0.00 0.00 0.00 65 1017.9
20260507195504 69 4 8.0 19.0 0.00 0.00 0.00 66 1017.9
20260507195003 69 6 10.0 19.0 0.00 0.00 0.00 67 1018.0
20260507194504 68 358 10.0 23.0 0.00 0.00 0.00 67 1017.8
20260507194004 68 357 7.0 23.0 0.00 0.00 0.00 70 1018.2
20260507193504 67 3 6.0 13.0 0.00 0.00 0.00 71 1018.3
20260507193025 67 353 8.0 13.0 0.00 0.00 0.00 70 1018.2
20260507192504 67 354 8.0 14.0 0.00 0.00 0.00 71 1018.6
20260507192004 67 12 6.0 14.0 0.00 0.00 0.00 73 1018.3
20260507191504 66 17 5.0 11.0 0.00 0.00 0.00 74 1018.3
20260507191004 66 14 6.0 10.0 0.00 0.00 0.00 72 1018.6
20260507190504 66 12 5.0 10.0 0.00 0.00 0.00 71 1018.7
20260507190005 67 13 5.0 10.0 0.00 0.00 0.00 69 1018.8
20260507185504 67 14 5.0 12.0 0.00 0.00 0.00 69 1018.8
20260507185004 67 3 5.0 12.0 0.00 0.00 0.00 69 1018.9
20260507184504 67 4 6.0 13.0 0.00 0.00 0.00 69 1018.9
20260507184004 67 3 7.0 14.0 0.00 0.00 0.00 69 1019.1
20260507183504 67 359 6.0 16.0 0.00 0.00 0.00 70 1019.1
20260507183004 67 9 5.0 16.0 0.00 0.00 0.00 72 1019.2
20260507182504 66 6 6.0 12.0 0.00 0.00 0.00 72 1019.4
20260507182004 66 5 6.0 12.0 0.00 0.00 0.00 72 1019.3
20260507181504 66 8 6.0 12.0 0.00 0.00 0.00 72 1019.3
20260507181004 65 4 6.0 12.0 0.00 0.00 0.00 72 1019.4
20260507180504 65 16 6.0 12.0 0.00 0.00 0.00 73 1019.2
20260507180004 65 22 6.0 12.0 0.00 0.00 0.00 73 1018.9
20260507175504 64 9 7.0 16.0 0.00 0.00 0.00 74 1018.7
20260507175004 64 357 8.0 16.0 0.00 0.00 0.00 74 1018.8
20260507174525 64 1 7.0 14.0 0.00 0.00 0.00 75 1018.9
20260507174024 64 21 7.0 14.0 0.00 0.00 0.00 76 1019.1
20260507173504 63 25 7.0 14.0 0.00 0.00 0.00 77 1018.8
20260507173004 63 26 6.0 13.0 0.00 0.00 0.00 77 1018.7
20260507172504 63 11 7.0 13.0 0.00 0.00 0.00 78 1018.9
20260507172025 62 19 7.0 14.0 0.00 0.00 0.00 78 1018.8
20260507171504 62 36 7.0 14.0 0.00 0.00 0.00 78 1018.9
20260507171025 62 34 6.0 14.0 0.00 0.00 0.00 79 1019.2
20260507170504 62 19 5.0 14.0 0.00 0.00 0.00 80 1019.4
20260507170004 62 356 5.0 13.0 0.00 0.00 0.00 79 1019.7
20260507165504 62 359 5.0 11.0 0.00 0.00 0.00 80 1019.7
20260507165004 62 19 6.0 14.0 0.00 0.00 0.00 81 1019.9
20260507164525 62 21 6.0 14.0 0.00 0.00 0.00 81 1019.7
20260507164003 62 4 7.0 17.0 0.00 0.00 0.00 81 1019.4
20260507163504 62 354 7.0 17.0 0.00 0.00 0.00 82 1019.7
20260507163003 62 343 8.0 18.0 0.00 0.00 0.00 82 1020.1
20260507162504 62 346 8.0 18.0 0.00 0.00 0.00 82 1019.8
20260507162004 62 350 8.0 19.0 0.00 0.00 0.00 83 1019.9
20260507161503 61 345 8.0 19.0 0.00 0.00 0.00 83 1019.5
20260507161004 61 337 8.0 19.0 0.00 0.00 0.00 83 1020.0
20260507160503 61 342 10.0 26.0 0.00 0.00 0.00 83 1020.2
20260507160004 61 358 8.0 26.0 0.00 0.00 0.00 83 1019.5
20260507155504 61 5 7.0 17.0 0.00 0.00 0.00 83 1019.1
20260507155003 61 353 6.0 14.0 0.00 0.00 0.00 83 1019.6
20260507154504 61 348 8.0 18.0 0.00 0.00 0.00 84 1019.9
20260507154004 61 351 8.0 18.0 0.00 0.00 0.00 84 1019.7
20260507153504 61 355 7.0 18.0 0.00 0.00 0.00 84 1019.6
20260507153003 61 355 8.0 20.0 0.00 0.00 0.00 84 1019.9
20260507152504 61 357 10.0 20.0 0.00 0.00 0.00 84 1020.1
20260507152003 61 354 8.0 18.0 0.00 0.00 0.00 84 1020.1
20260507151504 61 350 7.0 16.0 0.00 0.00 0.00 84 1020.1
20260507151004 61 349 7.0 22.0 0.00 0.00 0.00 84 1020.0
20260507150504 61 345 8.0 22.0 0.00 0.00 0.00 84 1020.0
20260507150004 61 345 8.0 14.0 0.00 0.00 0.00 85 1019.9
20260507145503 61 343 7.0 22.0 0.00 0.00 0.00 85 1020.0
20260507145004 61 339 8.0 22.0 0.00 0.00 0.00 85 1020.0
20260507144503 60 334 7.0 19.0 0.00 0.00 0.00 85 1019.8
20260507144003 60 332 7.0 19.0 0.00 0.00 0.00 85 1019.6
20260507143503 60 335 8.0 19.0 0.00 0.00 0.00 85 1019.7
20260507143003 60 336 10.0 19.0 0.00 0.00 0.00 85 1019.6
20260507142504 60 338 8.0 16.0 0.00 0.00 0.00 86 1019.8
20260507142004 60 337 7.0 14.0 0.00 0.00 0.00 86 1019.8
20260507141503 60 335 5.0 13.0 0.00 0.00 0.00 86 1019.9
20260507141003 60 336 6.0 14.0 0.00 0.00 0.00 86 1020.2
20260507140503 60 342 7.0 14.0 0.00 0.00 0.00 86 1020.1
20260507140025 60 344 7.0 14.0 0.00 0.00 0.00 86 1019.3
20260507135504 60 341 6.0 12.0 0.00 0.00 0.00 86 1019.4
20260507135003 60 344 6.0 12.0 0.00 0.00 0.00 86 1019.6
20260507134503 60 348 6.0 12.0 0.00 0.00 0.00 86 1019.7
20260507134003 60 349 6.0 13.0 0.00 0.00 0.00 86 1019.5
20260507133503 60 354 6.0 13.0 0.00 0.00 0.00 86 1019.4
20260507133004 60 355 6.0 14.0 0.00 0.00 0.00 86 1019.2
20260507132504 60 350 7.0 14.0 0.00 0.00 0.00 86 1019.2
20260507132003 60 344 6.0 13.0 0.00 0.00 0.00 86 1019.1
20260507131503 60 346 6.0 13.0 0.00 0.00 0.00 86 1018.9
20260507131003 60 349 8.0 16.0 0.00 0.00 0.00 86 1018.6
20260507130503 60 344 8.0 17.0 0.00 0.00 0.00 86 1018.6
20260507130004 60 342 7.0 17.0 0.00 0.00 0.00 86 1018.8
20260507125503 60 346 6.0 14.0 0.00 0.00 0.00 86 1018.8
20260507125003 60 341 6.0 13.0 0.00 0.00 0.00 86 1019.1
20260507124503 60 342 8.0 19.0 0.00 0.00 0.00 86 1018.9
20260507124003 60 344 10.0 19.0 0.00 0.00 0.00 86 1018.7
20260507123503 60 342 8.0 18.0 0.00 0.00 0.00 86 1018.7
20260507123004 60 340 7.0 16.0 0.00 0.00 0.00 86 1018.8
20260507122503 60 343 8.0 23.0 0.00 0.00 0.00 86 1018.8
20260507122003 60 344 10.0 23.0 0.00 0.00 0.00 86 1018.6
20260507121504 60 340 8.0 23.0 0.00 0.00 0.00 86 1018.6
20260507121003 60 338 7.0 16.0 0.00 0.00 0.00 86 1018.6
20260507120503 60 345 7.0 14.0 0.00 0.00 0.00 86 1018.5
20260507120004 60 351 8.0 18.0 0.00 0.00 0.00 86 1018.1
20260507115503 60 342 7.0 18.0 0.00 0.00 0.00 86 1018.1
20260507115003 60 335 7.0 18.0 0.00 0.00 0.00 86 1018.0
20260507114504 60 341 7.0 13.0 0.00 0.00 0.00 85 1018.0
20260507114003 60 344 8.0 16.0 0.00 0.00 0.00 85 1017.9
20260507113503 60 345 10.0 18.0 0.00 0.00 0.00 85 1017.8
20260507113024 60 351 10.0 19.0 0.00 0.00 0.00 85 1017.8
20260507112503 60 357 8.0 19.0 0.00 0.00 0.00 85 1018.2
20260507112003 60 357 7.0 14.0 0.00 0.00 0.00 85 1018.2
20260507111504 60 353 7.0 17.0 0.00 0.00 0.00 85 1018.0
20260507111003 60 348 7.0 17.0 0.00 0.00 0.00 85 1017.9
20260507110525 61 349 7.0 17.0 0.00 0.00 0.00 85 1018.1
20260507110003 61 338 7.0 17.0 0.00 0.00 0.00 85 1018.0
20260507105503 61 335 6.0 14.0 0.00 0.00 0.00 85 1017.9
20260507105024 61 348 6.0 16.0 0.00 0.00 0.00 85 1017.8
20260507104524 61 348 8.0 20.0 0.00 0.00 0.00 85 1017.8
20260507104003 61 346 8.0 20.0 0.00 0.00 0.00 85 1017.9
20260507103503 61 345 8.0 18.0 0.00 0.00 0.00 84 1017.6
20260507103003 61 346 8.0 18.0 0.00 0.00 0.00 84 1017.5
20260507102503 61 353 7.0 16.0 0.00 0.00 0.00 84 1017.6
20260507102024 61 352 8.0 14.0 0.00 0.00 0.00 84 1017.3
20260507101503 61 344 10.0 16.0 0.00 0.00 0.00 84 1017.2
20260507101024 61 344 8.0 16.0 0.00 0.00 0.00 83 1017.3
20260507100503 61 345 6.0 14.0 0.00 0.00 0.00 83 1017.4
20260507100003 61 335 6.0 14.0 0.00 0.00 0.00 83 1017.2
20260507095503 61 336 7.0 14.0 0.00 0.00 0.00 83 1017.4
20260507095003 62 345 6.0 14.0 0.00 0.00 0.00 83 1017.1
20260507094503 62 345 5.0 14.0 0.00 0.00 0.00 83 1017.0
20260507094003 62 341 5.0 10.0 0.00 0.00 0.00 82 1017.5
20260507093525 62 337 5.0 16.0 0.00 0.00 0.00 82 1017.3
20260507093024 62 336 6.0 16.0 0.00 0.00 0.00 83 1017.1
20260507092503 62 342 7.0 14.0 0.00 0.00 0.00 82 1017.1
20260507092024 62 345 7.0 14.0 0.00 0.00 0.00 82 1016.8
20260507091503 62 345 5.0 13.0 0.00 0.00 0.00 82 1016.8
20260507091003 62 343 6.0 12.0 0.00 0.00 0.00 82 1017.0
20260507090503 62 338 6.0 12.0 0.00 0.00 0.00 82 1017.0
20260507090024 62 338 5.0 10.0 0.00 0.00 0.00 82 1016.8
20260507085503 62 345 5.0 10.0 0.00 0.00 0.00 82 1016.8
20260507085024 62 348 5.0 10.0 0.00 0.00 0.00 82 1016.8
20260507084503 62 351 5.0 11.0 0.00 0.00 0.00 82 1016.8
20260507084024 62 357 5.0 11.0 0.00 0.00 0.00 82 1016.7
20260507083503 62 2 5.0 10.0 0.00 0.00 0.00 81 1016.5
20260507083004 62 356 4.0 12.0 0.00 0.00 0.00 81 1016.7
20260507082504 62 345 4.0 12.0 0.00 0.00 0.00 81 1016.9
20260507082004 62 3 2.0 10.0 0.00 0.00 0.00 81 1016.9
20260507081504 62 50 1.0 7.0 0.00 0.00 0.00 81 1017.0
20260507081004 62 52 1.0 7.0 0.00 0.00 0.00 81 1016.7
20260507080504 62 20 2.0 7.0 0.00 0.00 0.00 81 1016.5
20260507080004 62 6 2.0 10.0 0.00 0.00 0.00 81 1016.4
20260507075504 62 10 4.0 10.0 0.00 0.00 0.00 81 1016.5